Vorticity
8 8 8 8 8 7 7 7 7 7 7 8 9 11 12 11 9 8 8 7 7 7 7 6 5 4 3 5 7 9 8 5 8 14 13 4 1 5 7 5 4 5 5 5 6 5 6 6 4 2 3 4 3 1 3 3 5 12 12 7 7 5 6 7 5 2 -1 4 4 3 6 5 4 3 5 6 9 9 4 5 6 8 7 6 9 6 3 2
8 8 8 7 7 7 7 7 7 6 6 7 6 8 9 11 11 9 8 8 8 8 7 7 6 5 5 4 5 7 9 8 5 9 17 8 1 5 7 6 4 5 5 4 6 6 5 7 5 2 5 3 3 3 2 5 7 18 20 8 7 4 5 10 4 1 2 5 4 2 5 6 7 5 5 7 6 6 4 6 6 5 6 7 8 5 2 2
7 7 7 7 7 6 7 7 7 7 7 7 7 7 7 9 11 11 9 8 8 8 8 8 7 6 5 5 4 5 7 10 7 6 16 12 1 4 7 6 5 5 5 4 5 6 6 7 6 3 4 1 5 4 -2 7 11 20 19 5 15 7 1 13 4 2 5 4 3 3 5 3 8 10 7 9 9 7 6 7 6 4 6 5 6 5 1 2
7 7 7 7 7 6 7 7 8 9 8 8 8 8 7 7 8 10 10 8 8 8 9 8 8 7 5 6 4 4 5 7 10 8 13 12 2 1 4 5 6 6 4 4 6 8 6 5 6 4 2 1 4 1 -2 12 11 21 24 2 15 16 2 9 5 4 5 1 3 4 5 3 8 12 8 11 11 8 8 9 7 4 4 3 6 5 3 5
7 7 6 6 7 8 8 9 10 10 10 10 9 9 9 9 8 8 10 9 9 8 9 8 8 8 6 7 4 4 4 4 11 11 11 13 4 -1 2 4 5 7 4 5 8 8 5 5 6 3 4 0 2 5 -1 10 14 25 35 5 6 18 6 5 3 4 3 -1 3 3 4 4 9 10 8 11 8 8 10 9 9 4 3 4 5 6 7 5
6 6 6 7 8 9 9 10 10 10 11 11 11 10 9 10 9 8 8 10 9 7 9 9 9 8 7 7 4 5 3 2 10 12 12 11 5 2 2 2 3 5 5 6 9 9 6 5 5 2 5 0 2 13 -1 4 18 20 29 12 6 14 6 4 1 -0 1 0 4 5 5 6 10 9 7 9 7 9 11 12 10 4 5 5 4 7 8 5
6 6 7 8 8 8 9 9 10 11 12 12 12 13 12 11 11 10 9 9 10 9 8 9 9 9 8 7 5 6 3 1 6 8 13 9 5 6 3 2 1 2 5 7 8 9 6 5 6 1 5 4 -1 10 7 5 8 5 18 17 9 10 4 6 7 2 2 4 3 2 5 8 9 7 4 8 10 9 12 15 10 3 4 3 5 7 5 4
6 7 7 8 8 8 9 9 11 12 13 14 15 16 16 16 14 13 12 10 10 10 9 8 10 9 9 8 6 5 2 4 4 4 12 9 5 9 5 4 0 -1 3 6 7 6 5 6 6 -0 4 7 -4 3 13 6 -3 2 21 16 7 11 5 6 9 5 4 5 5 1 2 7 9 8 4 7 10 9 13 15 10 5 3 3 5 6 5 4
6 7 7 7 8 8 9 10 12 13 14 16 17 19 20 22 20 17 15 14 12 12 12 10 10 11 9 8 7 4 3 7 4 2 10 8 8 10 5 5 1 -1 1 4 7 5 5 6 5 4 4 4 1 5 7 2 -1 10 23 15 9 11 4 5 6 5 8 6 5 4 3 6 9 11 7 5 6 8 13 14 11 7 2 4 6 3 6 6
7 7 8 8 8 9 11 12 13 14 15 17 18 20 21 23 25 24 22 19 16 13 13 12 11 11 10 9 7 3 5 8 3 3 7 6 10 10 5 5 3 -0 -0 2 6 6 7 4 4 7 2 -0 5 7 3 1 2 4 12 14 12 8 2 4 5 7 8 4 3 3 4 5 6 11 8 5 8 7 9 14 12 9 4 4 5 3 5 7
7 8 8 8 9 10 12 13 13 13 14 15 14 13 13 15 19 23 26 25 22 18 16 14 12 12 12 10 7 4 8 9 5 6 5 5 10 11 7 5 4 2 0 1 2 4 6 4 4 4 0 2 6 7 3 2 3 2 5 8 10 11 7 5 6 8 7 6 4 -1 3 6 4 11 11 5 9 8 6 13 12 7 7 4 3 4 5 7
8 8 8 9 10 11 13 13 13 13 12 12 9 6 5 7 10 13 19 25 26 24 21 18 15 14 13 12 8 5 10 10 7 7 5 4 7 10 10 6 4 3 1 1 1 2 4 4 6 4 3 5 6 5 3 1 3 3 3 4 8 12 12 10 7 7 7 10 8 -3 2 9 3 7 13 7 6 8 6 9 11 8 7 5 3 3 5 7
8 8 8 9 11 12 13 13 12 11 11 10 8 7 6 8 10 9 11 17 24 26 24 22 19 16 15 13 10 7 9 9 9 7 5 5 5 8 11 8 5 3 2 2 1 1 1 3 6 6 6 6 5 3 4 4 1 2 1 -0 7 13 15 14 8 8 7 7 7 0 1 7 5 4 10 10 6 7 7 6 8 8 6 5 4 3 5 8
8 8 9 10 11 12 12 12 12 10 9 9 9 10 10 11 12 11 8 10 17 23 24 22 22 20 17 15 13 11 9 9 10 8 6 5 4 6 8 10 8 3 3 2 2 2 -1 -0 4 6 6 6 7 4 5 5 -1 4 1 -4 5 10 15 15 6 8 7 6 8 3 1 3 4 5 9 12 8 5 7 7 7 8 8 6 4 4 4 6
8 9 9 10 11 12 12 12 11 10 9 10 11 13 15 15 13 11 9 8 10 17 21 20 21 22 20 16 14 13 11 10 10 9 7 5 4 5 6 10 10 6 4 2 2 3 1 -1 -1 4 7 5 5 5 6 4 1 2 -7 -1 13 4 8 16 13 15 6 6 11 1 3 6 1 2 9 12 8 5 6 6 7 7 9 7 4 5 4 5
9 9 10 9 9 10 11 11 9 9 9 11 13 16 17 17 13 10 9 9 9 11 16 18 20 21 19 17 17 16 14 11 10 10 8 7 5 5 5 7 10 9 5 3 3 2 2 1 -2 1 6 6 5 3 4 4 4 1 -13 -2 13 0 1 9 14 21 10 8 13 4 7 7 -1 -1 7 13 8 5 7 5 7 7 8 8 5 4 4 4
10 10 9 8 7 7 8 9 9 9 10 11 14 15 18 19 15 10 8 9 9 10 12 15 18 20 18 16 17 17 16 12 11 11 9 8 6 5 6 6 9 11 9 6 3 3 2 1 1 -2 -1 6 9 5 4 3 4 6 -3 -3 8 7 7 8 9 15 12 14 10 6 15 9 -1 1 2 10 10 5 6 5 6 8 7 8 6 4 5 4
10 10 10 9 7 7 7 6 6 10 13 14 14 14 16 19 17 12 10 9 9 9 11 13 15 17 17 15 14 16 18 15 11 12 11 9 7 6 6 6 7 9 11 9 4 4 3 2 4 -0 -3 2 6 8 6 3 5 9 3 -2 3 7 7 7 8 6 5 12 5 2 21 17 2 5 2 4 11 9 7 6 6 7 8 10 7 6 5 3
10 10 10 9 8 7 7 5 5 10 17 16 14 15 15 17 17 15 14 13 11 10 11 13 14 14 16 19 19 15 17 18 13 12 12 10 9 7 7 7 7 8 10 10 7 5 4 3 3 2 2 -1 -1 6 5 3 6 7 3 -1 -1 2 10 9 5 9 6 3 1 3 26 29 8 2 3 3 8 10 8 5 6 7 8 10 7 6 6 3
10 9 10 9 7 7 7 7 7 11 18 18 15 15 14 14 16 16 16 14 13 12 10 12 13 13 14 18 22 19 17 17 15 13 13 12 10 8 8 7 7 7 8 9 8 7 5 5 4 3 4 0 -2 0 3 5 4 4 4 -0 0 4 13 14 3 5 10 9 5 1 22 34 14 4 4 3 7 10 10 7 6 7 7 9 7 5 7 5
10 9 10 9 8 8 8 8 8 13 20 19 14 14 15 14 14 16 17 15 14 13 11 11 12 14 14 13 17 20 18 17 16 13 12 13 11 9 9 8 9 8 7 9 8 8 7 5 6 5 3 2 1 -3 5 8 -1 7 10 -5 1 6 2 9 13 7 3 11 10 0 18 24 5 5 7 2 7 9 10 9 7 7 5 7 7 6 7 6
9 10 10 9 9 9 11 11 10 16 20 16 13 14 16 16 14 14 15 16 15 13 12 12 11 12 14 13 13 16 18 18 17 14 13 14 11 10 9 8 9 8 8 8 7 9 9 7 6 6 5 4 1 -3 4 1 -13 5 16 -4 0 11 0 -2 11 17 4 3 10 4 16 19 1 7 12 2 4 8 9 9 9 9 5 5 6 6 8 7
9 10 10 10 10 10 12 12 12 17 17 14 13 14 17 19 17 15 15 17 17 14 12 12 12 12 12 13 14 15 17 16 16 15 15 14 12 12 10 8 9 9 9 8 7 9 8 8 8 6 7 7 3 -0 3 0 -9 1 9 2 4 8 14 10 0 13 14 2 8 5 12 30 21 14 13 1 0 7 9 8 9 9 6 5 5 5 6 7
9 10 10 11 11 11 12 12 14 16 15 14 14 15 18 20 19 16 15 16 17 16 14 11 11 12 11 12 14 16 17 17 15 14 14 13 14 13 10 10 9 8 11 8 7 9 9 11 9 7 8 8 7 2 1 3 0 3 4 4 3 -8 10 26 1 3 20 8 4 4 8 31 32 16 11 6 1 5 7 8 9 8 7 5 4 7 6 5
9 9 10 11 11 12 12 13 15 15 14 14 15 18 21 22 23 20 18 19 18 16 16 14 11 11 11 11 12 13 14 17 14 12 13 11 12 13 11 12 9 9 12 9 8 8 8 10 4 7 13 7 7 5 1 5 2 4 11 8 -1 -15 -2 17 -1 -4 20 16 6 4 3 14 19 11 11 10 2 2 6 8 9 6 7 9 5 6 7 4
9 9 10 12 13 13 12 14 14 12 13 13 15 21 23 25 25 20 18 19 19 16 14 14 12 12 12 10 14 16 16 22 19 13 14 12 11 10 9 10 7 9 10 7 11 9 10 17 5 1 11 5 5 8 2 5 0 -5 9 24 15 -6 -4 11 6 1 11 17 14 9 6 6 6 7 10 11 5 3 6 6 8 8 7 9 8 7 6 4
9 9 11 12 14 13 13 13 12 11 12 12 17 22 24 25 24 24 22 16 17 18 14 16 14 13 14 11 13 13 12 21 22 17 15 14 14 12 11 12 7 10 10 5 12 7 5 25 18 -2 3 7 7 9 5 6 4 -9 -9 13 24 3 -11 -3 6 7 6 6 8 11 11 3 3 10 9 10 10 4 4 5 6 9 9 9 8 9 9 5
9 10 11 14 14 14 13 12 11 11 11 13 17 21 25 26 21 20 13 2 12 20 15 15 15 12 13 12 13 10 5 10 17 20 17 12 13 12 12 14 9 8 11 7 10 8 -0 8 16 7 1 6 9 7 9 6 -1 -3 -11 -13 8 13 -6 -12 -3 7 10 1 -4 8 15 5 5 10 5 11 19 10 3 6 6 5 7 10 8 7 9 7
10 10 12 15 14 14 13 11 10 10 11 13 16 20 23 18 9 11 7 -3 10 23 16 15 16 13 13 12 13 14 10 7 11 18 17 12 14 10 4 11 12 8 12 4 -7 15 32 12 4 14 6 2 11 8 9 14 1 1 9 -4 -0 14 3 -4 -2 1 10 9 1 7 15 14 8 2 5 15 21 17 8 2 6 8 6 8 10 8 7 6
11 10 14 16 14 14 12 11 10 9 11 11 15 19 16 6 -1 7 15 7 11 20 16 14 15 13 15 15 14 14 13 9 9 14 16 11 11 11 6 9 13 8 17 7 -26 -4 39 21 -2 11 8 0 12 7 0 18 12 -3 6 4 -3 7 7 2 -0 -2 7 11 4 -3 1 19 13 -7 6 19 13 21 27 9 0 8 8 6 8 8 8 8
12 10 14 16 15 13 11 10 9 9 10 10 14 13 6 7 4 6 17 11 6 16 21 19 16 13 16 16 15 16 12 10 13 13 18 17 10 10 10 10 10 6 15 11 -13 -5 17 11 7 12 8 3 7 6 -3 8 15 -0 1 6 -0 4 10 6 -2 -5 0 4 7 -1 -9 13 19 -4 -1 14 11 14 21 11 1 6 9 7 8 7 8 9
12 12 15 16 15 13 11 10 8 9 9 8 13 8 3 9 6 8 21 12 1 9 19 20 16 14 12 7 13 24 20 17 18 13 17 21 13 10 9 8 13 14 17 13 3 9 8 2 13 14 8 10 6 7 5 3 11 7 2 9 7 3 8 13 8 -1 -4 -4 4 4 -9 -1 14 7 -1 6 13 11 8 8 8 10 8 5 6 6 7 8
13 13 15 16 15 14 11 10 8 8 8 7 9 6 5 9 8 8 13 11 6 5 11 13 10 14 13 6 11 22 23 20 20 18 18 19 15 19 18 8 11 12 16 26 20 16 15 8 11 12 9 11 7 8 9 3 10 13 6 6 9 4 2 8 13 9 4 -2 -2 2 -2 -5 5 11 6 4 10 11 9 10 10 10 8 5 6 4 4 7
14 14 16 16 16 14 10 10 8 6 7 7 5 4 4 8 17 13 4 12 18 11 14 15 10 14 13 9 6 4 9 15 18 17 18 19 10 12 20 12 8 -1 -7 20 30 17 26 30 20 16 12 12 12 9 6 4 8 11 9 6 6 6 3 5 12 14 12 8 4 7 7 0 2 10 8 8 12 6 1 6 12 17 16 10 7 3 3 6
14 15 16 18 16 12 10 10 7 5 7 5 2 8 9 4 9 10 7 14 11 6 16 17 16 18 7 6 12 4 1 9 19 16 13 25 12 2 23 28 21 5 -17 5 26 10 16 31 29 25 15 10 14 12 7 7 9 11 8 5 5 7 2 -2 3 6 8 10 7 9 16 10 2 4 3 6 16 10 -3 -4 5 18 25 19 11 6 3 4
14 16 17 18 16 12 10 10 7 5 6 4 2 8 12 4 2 9 16 12 2 9 21 14 15 17 3 4 16 18 8 6 24 24 7 17 18 7 19 26 33 23 -12 -7 18 15 8 9 21 33 23 12 9 10 13 5 4 17 19 7 -1 5 9 5 5 5 3 6 4 1 8 8 2 2 2 2 9 11 5 -1 -4 3 15 18 15 16 12 6
15 16 16 19 16 12 10 9 8 6 4 6 10 10 10 7 5 13 19 10 3 10 9 2 6 9 5 9 16 21 13 4 19 19 -2 1 10 10 5 5 27 26 -9 -21 -6 17 24 5 11 27 25 23 10 4 18 8 -6 6 23 26 9 -3 4 5 5 10 5 1 5 6 3 -1 4 14 12 7 7 9 9 6 1 -2 2 9 10 13 15 12
13 15 18 20 16 11 10 9 8 6 3 5 12 10 6 7 7 13 18 15 12 6 -6 1 17 15 11 12 11 15 15 16 21 11 5 8 2 0 -3 2 30 35 15 -10 -26 7 31 3 10 32 27 30 17 -0 13 15 1 -9 -5 25 31 8 8 12 5 6 10 8 6 13 19 7 3 12 15 14 12 9 9 9 7 4 -1 4 9 7 10 19
10 16 20 19 14 11 10 9 8 7 6 6 10 11 6 6 7 7 12 16 16 6 -0 12 19 10 7 8 9 13 12 18 20 8 10 14 5 5 -1 -2 23 37 34 5 -30 -3 18 -15 -1 42 44 38 22 4 9 14 16 1 -23 -5 19 6 3 17 15 2 2 10 3 1 15 15 4 2 2 7 10 7 10 12 9 11 6 4 14 18 12 16
8 16 21 18 15 12 9 10 9 7 6 4 6 8 6 6 7 6 9 14 12 4 5 18 17 6 7 9 11 15 9 4 7 9 13 7 2 16 17 2 6 18 25 11 -18 -11 5 -15 -13 16 31 33 19 6 8 8 16 19 -1 -8 4 6 1 0 9 9 -0 6 8 0 6 11 9 13 9 5 8 8 11 13 7 12 14 4 8 14 5 -1
9 16 19 17 15 11 8 9 8 6 7 9 8 5 5 6 8 8 6 8 13 7 5 14 15 8 7 6 6 13 14 9 8 11 15 11 3 15 28 18 8 11 14 15 11 5 4 -0 -7 -1 17 33 34 26 16 6 11 25 24 8 -2 10 22 7 -0 9 4 1 3 -2 5 10 1 12 26 18 9 5 9 11 2 4 11 5 4 7 3 5
11 14 13 15 15 11 9 7 9 10 6 9 13 8 7 7 6 11 7 3 12 14 10 9 5 6 11 9 8 10 9 10 14 10 6 11 9 12 28 25 16 22 13 4 23 30 12 -4 -13 -7 9 21 35 45 33 8 -2 9 23 20 -0 -5 15 18 6 10 14 14 8 -6 1 13 -2 0 25 29 18 8 9 11 -2 -4 10 12 10 7 3 11
11 10 11 15 15 12 10 7 11 14 3 3 13 9 9 9 5 9 9 3 7 11 13 13 6 7 10 5 5 9 8 9 14 10 5 11 7 0 14 18 13 24 13 -9 10 32 24 9 -4 -7 -0 4 13 28 34 19 -1 -4 9 22 14 -4 3 14 6 6 11 14 22 18 7 2 -8 -5 7 14 18 12 7 11 -4 -13 1 9 11 9 3 7
9 11 14 15 15 13 11 6 7 14 8 6 13 10 9 11 6 8 9 4 6 9 12 15 12 10 8 3 2 5 10 12 8 -1 -4 10 18 7 8 13 13 21 13 -5 4 23 25 20 9 -4 -10 -5 3 11 28 37 20 -2 -3 16 23 4 1 14 13 10 2 -9 6 24 19 3 -5 3 6 2 13 14 8 16 9 -4 -1 3 9 13 6 6
13 15 12 11 16 14 10 6 4 12 13 8 7 9 11 10 6 7 9 6 7 7 8 14 14 10 9 10 6 2 4 6 9 8 -3 -1 13 11 6 10 13 17 16 9 11 15 16 16 14 4 -14 -17 -2 4 10 31 37 12 -10 1 20 11 1 8 18 25 16 -3 -7 -2 10 17 7 8 15 6 7 12 7 10 13 8 4 -0 3 10 10 8
15 11 8 10 17 16 11 8 2 5 13 10 6 7 10 11 8 7 8 8 8 6 6 10 11 11 15 15 9 9 10 3 5 14 8 4 10 8 4 10 15 15 13 14 16 13 10 13 17 13 -6 -15 -4 1 -2 11 32 38 20 2 2 11 20 11 -0 12 27 27 15 -7 -6 10 5 5 17 9 3 10 10 7 8 9 6 3 3 5 8 12
13 8 10 11 15 15 14 13 8 5 11 13 10 9 9 10 9 7 8 7 7 7 7 7 8 11 15 14 8 9 14 11 7 6 5 12 19 13 6 7 13 16 13 13 19 19 13 11 17 19 9 1 -0 4 10 6 3 21 39 30 6 -2 16 19 -8 -10 16 32 29 14 3 3 0 4 12 8 3 7 8 7 7 8 7 4 3 3 5 11
13 10 10 8 9 10 11 14 13 8 7 7 8 11 12 11 8 6 9 8 7 8 8 8 10 10 10 10 10 8 9 14 18 14 8 10 12 12 12 8 6 10 11 12 18 21 17 11 15 19 14 8 -0 -2 11 13 1 6 15 21 21 4 -2 12 1 -16 -1 13 11 10 12 11 7 4 7 13 17 14 9 8 9 9 9 6 2 1 3 6
14 12 12 10 9 6 6 10 9 7 9 11 10 10 10 10 9 8 8 8 7 8 7 8 9 10 10 9 9 10 10 12 16 14 10 9 7 7 11 14 15 10 2 8 17 20 16 9 9 18 21 15 3 -8 -5 0 8 19 6 -7 12 18 5 13 14 -5 -2 11 6 -4 -2 8 13 7 -0 4 15 18 11 7 9 8 7 9 6 0 1 4
14 13 13 11 9 8 9 11 9 8 12 14 12 10 11 11 10 10 8 7 8 8 8 9 9 7 9 8 6 11 13 10 11 11 7 7 10 11 8 9 18 17 5 7 14 16 18 12 3 9 18 18 16 7 -3 -7 1 18 19 4 5 13 13 18 17 1 -2 9 12 2 -4 4 12 9 2 3 10 17 13 5 9 13 7 7 8 3 4 10
15 13 12 9 9 12 14 14 13 11 11 15 14 11 12 13 10 9 9 8 9 9 9 10 9 7 9 9 8 11 13 11 12 11 6 3 3 7 8 5 8 13 14 16 15 11 16 17 10 11 8 5 21 25 8 -1 1 4 14 16 7 4 12 18 17 13 9 9 11 11 7 6 5 1 4 16 20 19 17 8 5 11 12 12 11 4 5 16
15 14 13 9 7 9 10 12 16 13 8 11 14 11 10 12 10 9 10 10 9 10 10 11 11 7 8 11 11 12 11 9 10 12 12 10 6 4 7 8 6 6 9 15 18 14 13 11 10 19 14 -3 6 22 17 8 4 2 9 15 10 6 7 8 11 14 13 7 6 14 12 3 0 -1 -1 11 18 15 18 15 3 1 5 10 16 13 6 13
Height
5870 5869 5869 5868 5867 5867 5866 5866 5865 5865 5865 5865 5864 5864 5864 5864 5864 5864 5865 5865 5866 5866 5867 5868 5869 5870 5871 5872 5873 5874 5875 5875 5877 5878 5879 5882 5883 5882 5884 5885 5885 5886 5887 5888 5889 5891 5892 5893 5893 5893 5894 5894 5893 5893 5893 5893 5893 5893 5894 5894 5894 5894 5895 5896 5897 5897 5898 5899 5899 5899 5899 5900 5900 5900 5901 5902 5902 5903 5903 5904 5905 5906 5907 5907 5908 5909 5909 5909
5869 5868 5867 5866 5866 5865 5864 5864 5863 5863 5863 5862 5862 5862 5862 5862 5862 5862 5862 5863 5863 5864 5865 5866 5867 5868 5869 5870 5871 5873 5874 5874 5875 5876 5878 5881 5881 5881 5882 5883 5884 5885 5886 5888 5889 5890 5892 5892 5893 5893 5893 5893 5893 5893 5893 5893 5893 5892 5893 5894 5893 5893 5895 5896 5897 5897 5898 5899 5899 5900 5900 5900 5900 5901 5901 5902 5902 5903 5904 5904 5905 5906 5907 5908 5909 5910 5909 5909
5868 5867 5866 5865 5864 5863 5863 5862 5861 5861 5860 5860 5860 5860 5859 5859 5860 5860 5860 5860 5861 5861 5862 5863 5864 5865 5866 5868 5869 5870 5872 5873 5873 5875 5877 5879 5880 5880 5881 5882 5883 5884 5886 5887 5888 5890 5891 5891 5892 5892 5892 5893 5893 5893 5893 5892 5892 5892 5893 5893 5893 5894 5895 5897 5897 5897 5899 5899 5900 5900 5901 5901 5901 5901 5902 5902 5903 5903 5904 5904 5905 5906 5907 5908 5909 5910 5910 5910
5866 5865 5864 5863 5862 5861 5860 5860 5859 5858 5858 5857 5857 5857 5857 5857 5857 5857 5857 5857 5858 5858 5859 5860 5861 5863 5864 5865 5866 5868 5869 5870 5871 5874 5876 5877 5878 5879 5880 5881 5882 5884 5885 5887 5888 5889 5890 5890 5891 5891 5892 5892 5893 5893 5893 5892 5892 5892 5893 5894 5894 5895 5897 5898 5898 5898 5899 5900 5900 5901 5901 5901 5901 5902 5902 5903 5903 5904 5904 5905 5905 5906 5907 5908 5909 5911 5911 5910
5864 5863 5862 5861 5860 5859 5858 5857 5856 5856 5855 5854 5854 5853 5853 5853 5853 5854 5854 5855 5855 5855 5856 5857 5858 5859 5861 5862 5863 5865 5866 5867 5870 5873 5873 5875 5876 5877 5878 5880 5882 5883 5884 5886 5887 5888 5889 5889 5890 5891 5891 5891 5892 5893 5893 5892 5891 5891 5892 5894 5894 5895 5897 5898 5898 5899 5900 5901 5901 5902 5902 5902 5902 5902 5903 5903 5904 5904 5904 5905 5906 5906 5907 5908 5909 5911 5911 5911
5862 5861 5860 5859 5858 5857 5855 5854 5853 5853 5852 5851 5850 5850 5850 5849 5850 5850 5850 5851 5851 5852 5853 5853 5855 5856 5857 5859 5860 5861 5862 5865 5869 5870 5872 5873 5873 5875 5877 5879 5881 5882 5883 5885 5886 5887 5888 5888 5889 5890 5890 5891 5892 5893 5893 5893 5892 5891 5892 5893 5893 5895 5896 5897 5898 5899 5900 5901 5902 5902 5903 5903 5902 5903 5903 5904 5904 5904 5905 5906 5906 5907 5908 5909 5910 5912 5912 5912
5860 5859 5857 5856 5854 5853 5852 5851 5850 5849 5848 5847 5846 5846 5845 5845 5845 5845 5846 5847 5847 5848 5849 5850 5851 5852 5854 5855 5857 5858 5859 5863 5866 5867 5869 5870 5871 5873 5875 5877 5879 5881 5882 5883 5885 5885 5886 5887 5888 5888 5889 5890 5892 5893 5893 5893 5893 5893 5894 5894 5894 5894 5895 5897 5899 5899 5900 5901 5902 5902 5903 5903 5903 5903 5903 5904 5905 5905 5905 5906 5907 5907 5909 5910 5911 5912 5913 5913
5858 5856 5855 5853 5851 5850 5849 5847 5846 5845 5844 5843 5842 5842 5841 5841 5841 5841 5841 5842 5843 5844 5844 5846 5847 5848 5850 5851 5853 5854 5854 5860 5863 5864 5866 5867 5869 5872 5874 5876 5878 5879 5880 5882 5883 5884 5885 5886 5887 5888 5889 5890 5891 5893 5893 5892 5893 5893 5894 5894 5894 5895 5896 5897 5898 5898 5899 5901 5902 5902 5902 5903 5903 5903 5903 5904 5905 5905 5906 5906 5907 5908 5909 5910 5911 5913 5914 5914
5855 5854 5852 5850 5848 5847 5845 5844 5842 5841 5840 5839 5838 5838 5837 5836 5836 5836 5837 5837 5838 5839 5840 5842 5843 5845 5846 5847 5849 5849 5851 5857 5859 5861 5863 5864 5867 5870 5872 5873 5875 5877 5879 5880 5881 5882 5883 5885 5886 5888 5889 5890 5891 5893 5893 5892 5893 5894 5894 5894 5894 5895 5895 5896 5896 5897 5897 5900 5902 5902 5902 5903 5903 5904 5904 5904 5905 5906 5906 5907 5908 5909 5909 5911 5912 5913 5914 5915
5853 5851 5849 5847 5845 5844 5842 5840 5839 5838 5837 5836 5835 5834 5833 5833 5832 5832 5832 5832 5833 5834 5836 5837 5839 5841 5841 5843 5845 5843 5848 5853 5854 5857 5860 5862 5865 5867 5869 5871 5873 5875 5877 5878 5880 5881 5882 5883 5885 5888 5889 5889 5890 5892 5892 5893 5893 5894 5894 5894 5894 5894 5894 5894 5895 5895 5897 5900 5901 5901 5902 5903 5903 5904 5905 5905 5906 5906 5907 5907 5908 5909 5910 5911 5912 5914 5915 5916
5850 5848 5847 5845 5843 5841 5839 5838 5836 5835 5834 5833 5832 5831 5830 5830 5829 5828 5828 5828 5829 5830 5832 5833 5835 5836 5837 5839 5838 5838 5846 5849 5851 5855 5856 5859 5862 5864 5867 5868 5870 5873 5875 5877 5878 5879 5880 5882 5885 5887 5888 5888 5889 5891 5892 5892 5893 5894 5894 5894 5894 5894 5893 5894 5895 5897 5899 5900 5901 5902 5903 5903 5904 5905 5905 5906 5906 5907 5907 5908 5909 5910 5911 5912 5913 5914 5915 5916
5848 5846 5844 5842 5840 5838 5837 5835 5834 5832 5831 5830 5830 5829 5828 5827 5826 5826 5825 5825 5825 5826 5828 5829 5831 5832 5834 5834 5833 5837 5844 5846 5848 5852 5853 5856 5859 5861 5864 5866 5868 5871 5873 5875 5876 5878 5879 5882 5885 5886 5887 5888 5889 5890 5891 5892 5893 5893 5893 5893 5893 5893 5894 5896 5897 5898 5900 5901 5903 5904 5903 5904 5905 5906 5906 5906 5907 5907 5907 5909 5910 5911 5911 5912 5913 5915 5916 5917
5846 5844 5842 5840 5838 5836 5835 5833 5832 5830 5829 5828 5827 5826 5825 5825 5824 5823 5822 5822 5822 5823 5824 5825 5827 5829 5830 5829 5831 5836 5839 5840 5844 5848 5850 5853 5855 5858 5861 5863 5866 5868 5871 5873 5875 5877 5878 5881 5884 5885 5886 5887 5888 5890 5891 5892 5892 5892 5892 5892 5893 5894 5895 5895 5896 5898 5900 5902 5903 5904 5904 5905 5905 5906 5906 5907 5907 5908 5908 5909 5910 5911 5912 5913 5914 5915 5917 5918
5844 5842 5840 5838 5836 5834 5833 5831 5830 5828 5827 5826 5824 5823 5823 5822 5821 5820 5820 5820 5820 5820 5821 5822 5823 5825 5826 5827 5830 5833 5835 5837 5841 5844 5846 5849 5852 5855 5858 5861 5864 5866 5869 5871 5873 5876 5878 5880 5883 5885 5886 5887 5888 5889 5890 5891 5891 5891 5891 5891 5893 5895 5895 5894 5895 5897 5899 5900 5901 5903 5905 5905 5905 5906 5906 5907 5908 5908 5909 5910 5911 5912 5912 5913 5914 5916 5917 5918
5842 5840 5838 5836 5834 5832 5831 5829 5828 5826 5825 5823 5822 5820 5819 5819 5818 5818 5817 5817 5817 5818 5818 5819 5820 5822 5823 5825 5827 5829 5832 5835 5837 5840 5843 5846 5849 5852 5855 5858 5861 5863 5866 5869 5872 5875 5877 5880 5882 5884 5885 5886 5887 5888 5889 5889 5889 5890 5891 5892 5895 5895 5893 5894 5894 5896 5898 5899 5900 5902 5904 5905 5905 5906 5906 5907 5908 5908 5909 5910 5911 5912 5913 5914 5915 5916 5917 5918
5841 5838 5836 5834 5832 5831 5829 5827 5826 5824 5823 5821 5819 5818 5816 5816 5815 5815 5815 5815 5815 5815 5816 5817 5818 5819 5820 5822 5824 5827 5829 5831 5834 5837 5840 5843 5846 5848 5852 5855 5858 5861 5864 5866 5869 5872 5874 5878 5880 5882 5884 5886 5886 5887 5888 5889 5889 5889 5890 5892 5895 5893 5892 5894 5894 5896 5898 5899 5900 5902 5904 5905 5905 5906 5906 5907 5908 5908 5909 5910 5911 5912 5913 5914 5915 5916 5918 5919
5839 5836 5834 5832 5830 5829 5827 5825 5824 5822 5820 5818 5817 5815 5814 5813 5812 5812 5812 5813 5813 5813 5814 5814 5815 5816 5817 5819 5821 5823 5825 5828 5832 5835 5837 5840 5843 5846 5849 5852 5855 5858 5861 5864 5866 5868 5871 5875 5878 5881 5884 5885 5886 5886 5887 5888 5888 5888 5889 5890 5892 5892 5892 5893 5893 5895 5898 5899 5900 5901 5903 5904 5905 5906 5907 5907 5908 5908 5909 5910 5911 5912 5913 5914 5915 5916 5918 5919
5837 5835 5833 5831 5829 5827 5825 5824 5821 5819 5817 5815 5814 5812 5811 5810 5810 5810 5810 5810 5810 5811 5811 5812 5813 5813 5814 5816 5818 5820 5823 5826 5829 5831 5834 5837 5840 5843 5846 5849 5852 5856 5859 5861 5863 5865 5869 5873 5876 5879 5881 5883 5885 5886 5888 5888 5887 5887 5888 5889 5891 5892 5892 5892 5893 5894 5896 5899 5900 5901 5902 5903 5904 5905 5906 5907 5908 5908 5909 5910 5911 5912 5913 5914 5915 5916 5917 5919
5835 5833 5831 5829 5827 5825 5823 5821 5819 5817 5815 5813 5811 5810 5809 5808 5807 5807 5807 5808 5808 5808 5809 5810 5811 5811 5812 5814 5816 5818 5821 5823 5826 5829 5832 5835 5838 5841 5843 5846 5850 5853 5856 5859 5861 5863 5867 5870 5873 5876 5879 5882 5884 5886 5887 5886 5885 5885 5887 5889 5891 5892 5891 5892 5894 5894 5895 5898 5900 5900 5900 5901 5902 5904 5906 5906 5907 5908 5908 5909 5911 5912 5913 5914 5915 5916 5917 5918
5833 5831 5829 5827 5825 5823 5821 5819 5817 5815 5813 5811 5809 5808 5807 5806 5805 5805 5805 5805 5805 5806 5806 5807 5808 5809 5811 5812 5814 5816 5818 5820 5823 5826 5829 5832 5836 5839 5841 5844 5847 5850 5853 5856 5859 5862 5865 5867 5870 5874 5879 5882 5883 5884 5885 5884 5884 5885 5887 5890 5891 5891 5891 5892 5893 5894 5894 5897 5898 5899 5898 5899 5901 5903 5905 5905 5906 5908 5908 5909 5911 5912 5913 5914 5915 5916 5917 5918
5831 5829 5827 5825 5823 5821 5819 5817 5815 5812 5810 5809 5807 5806 5805 5803 5803 5803 5803 5803 5803 5804 5804 5805 5806 5808 5809 5810 5811 5813 5816 5818 5821 5824 5827 5830 5834 5837 5839 5842 5845 5848 5851 5854 5856 5860 5862 5865 5868 5874 5878 5879 5879 5881 5882 5881 5884 5886 5887 5889 5890 5890 5891 5892 5893 5893 5894 5896 5897 5897 5898 5898 5901 5902 5903 5904 5906 5907 5908 5909 5910 5911 5913 5914 5915 5916 5916 5918
5830 5827 5825 5823 5821 5819 5817 5814 5812 5810 5808 5807 5805 5804 5802 5802 5801 5800 5801 5801 5801 5802 5802 5803 5804 5806 5807 5808 5809 5811 5814 5816 5819 5822 5825 5828 5832 5834 5837 5840 5843 5846 5848 5851 5854 5858 5860 5863 5867 5872 5875 5874 5874 5876 5878 5881 5885 5887 5886 5888 5889 5890 5890 5891 5893 5893 5894 5895 5896 5896 5896 5897 5899 5900 5902 5904 5905 5907 5908 5908 5909 5911 5912 5913 5915 5916 5916 5918
5828 5826 5823 5821 5819 5817 5815 5812 5810 5808 5806 5805 5803 5802 5800 5799 5799 5799 5799 5799 5799 5800 5801 5802 5803 5804 5805 5806 5808 5810 5812 5814 5817 5819 5822 5826 5829 5831 5835 5839 5841 5844 5845 5848 5853 5856 5860 5863 5867 5869 5870 5870 5873 5876 5878 5882 5885 5886 5887 5887 5888 5890 5890 5891 5893 5893 5893 5893 5894 5895 5895 5896 5897 5899 5901 5903 5904 5906 5907 5908 5908 5910 5912 5913 5914 5915 5916 5918
5826 5824 5822 5819 5817 5815 5813 5810 5808 5806 5805 5803 5801 5800 5798 5798 5797 5797 5797 5797 5798 5798 5799 5800 5801 5802 5804 5805 5807 5808 5810 5812 5814 5817 5820 5823 5826 5830 5835 5837 5840 5842 5843 5847 5851 5855 5859 5862 5865 5867 5866 5867 5872 5876 5877 5880 5883 5885 5886 5886 5887 5888 5889 5890 5891 5892 5892 5892 5894 5894 5895 5896 5896 5898 5900 5902 5904 5905 5907 5908 5908 5909 5911 5912 5913 5915 5916 5917
5824 5822 5820 5818 5815 5813 5811 5809 5807 5805 5803 5802 5800 5798 5797 5796 5796 5796 5796 5796 5797 5798 5798 5799 5800 5801 5803 5804 5806 5807 5809 5811 5812 5815 5817 5820 5824 5829 5832 5834 5838 5840 5842 5846 5850 5853 5856 5858 5860 5862 5861 5865 5871 5873 5875 5878 5880 5884 5885 5885 5886 5886 5886 5889 5889 5890 5892 5892 5893 5893 5894 5896 5896 5898 5899 5901 5903 5904 5905 5907 5907 5909 5910 5911 5913 5914 5916 5917
5823 5821 5818 5816 5814 5812 5810 5808 5806 5804 5802 5801 5799 5797 5796 5795 5795 5795 5795 5796 5796 5797 5798 5798 5800 5801 5802 5804 5805 5807 5809 5810 5812 5814 5817 5820 5823 5825 5828 5832 5836 5837 5840 5844 5847 5851 5854 5854 5856 5857 5859 5864 5868 5870 5872 5875 5879 5883 5885 5883 5883 5885 5886 5888 5888 5889 5891 5892 5892 5892 5893 5894 5895 5897 5899 5901 5902 5903 5904 5906 5907 5908 5910 5911 5913 5914 5916 5917
5821 5819 5817 5815 5812 5811 5808 5807 5805 5803 5802 5800 5798 5797 5795 5795 5795 5795 5796 5797 5797 5796 5797 5798 5799 5800 5802 5803 5805 5807 5808 5809 5812 5814 5816 5819 5821 5824 5828 5831 5834 5836 5839 5841 5845 5849 5850 5849 5851 5855 5858 5862 5866 5868 5870 5873 5877 5880 5879 5878 5880 5883 5884 5886 5887 5887 5889 5890 5891 5892 5893 5893 5895 5896 5897 5899 5901 5902 5903 5905 5906 5908 5909 5911 5912 5914 5915 5917
5820 5818 5816 5813 5811 5809 5808 5806 5804 5803 5801 5800 5798 5797 5796 5795 5796 5796 5797 5798 5797 5796 5797 5798 5799 5800 5801 5803 5804 5805 5806 5808 5811 5812 5814 5817 5820 5824 5827 5829 5832 5834 5836 5840 5845 5847 5845 5845 5850 5853 5856 5860 5863 5866 5867 5869 5874 5874 5873 5876 5879 5881 5882 5884 5885 5885 5887 5889 5890 5891 5892 5893 5895 5895 5896 5897 5899 5901 5902 5903 5905 5907 5909 5911 5912 5913 5915 5916
5819 5816 5814 5812 5810 5809 5807 5806 5804 5803 5801 5800 5799 5798 5797 5797 5797 5797 5798 5799 5798 5797 5797 5798 5799 5800 5801 5802 5804 5805 5807 5808 5809 5811 5813 5816 5818 5822 5824 5826 5830 5832 5834 5839 5844 5845 5842 5844 5849 5850 5853 5858 5860 5863 5865 5867 5872 5872 5872 5876 5878 5879 5882 5883 5883 5883 5886 5889 5889 5890 5892 5893 5894 5895 5896 5897 5898 5900 5901 5903 5904 5906 5908 5910 5911 5912 5914 5916
5817 5815 5813 5811 5809 5808 5807 5805 5804 5803 5802 5800 5800 5799 5799 5799 5798 5798 5800 5800 5798 5797 5797 5798 5799 5800 5801 5803 5804 5806 5807 5807 5808 5810 5812 5814 5817 5821 5822 5825 5828 5830 5834 5838 5841 5840 5838 5840 5845 5847 5850 5853 5856 5861 5863 5864 5867 5868 5869 5874 5877 5878 5880 5882 5883 5883 5886 5889 5890 5890 5891 5893 5894 5895 5895 5896 5897 5899 5900 5902 5904 5906 5907 5908 5910 5911 5913 5915
5816 5814 5812 5810 5809 5807 5806 5805 5804 5803 5802 5801 5800 5800 5800 5800 5799 5800 5801 5800 5798 5798 5798 5798 5799 5800 5801 5803 5804 5805 5806 5807 5809 5811 5812 5814 5817 5819 5820 5824 5827 5829 5832 5837 5838 5835 5834 5839 5844 5846 5848 5850 5852 5857 5858 5860 5863 5865 5868 5874 5876 5878 5879 5881 5882 5883 5886 5889 5889 5890 5891 5892 5893 5895 5895 5895 5896 5898 5900 5902 5904 5906 5907 5908 5909 5910 5912 5915
5815 5813 5811 5809 5808 5807 5806 5805 5804 5804 5803 5802 5801 5801 5801 5800 5801 5802 5801 5800 5799 5800 5799 5799 5799 5800 5802 5804 5805 5805 5806 5807 5809 5811 5813 5815 5817 5818 5820 5824 5827 5829 5833 5836 5836 5834 5836 5842 5844 5845 5847 5848 5851 5855 5857 5860 5863 5864 5869 5873 5875 5876 5878 5879 5881 5883 5885 5888 5888 5889 5890 5890 5891 5894 5895 5895 5895 5897 5899 5901 5902 5904 5906 5908 5909 5910 5911 5913
5814 5812 5810 5808 5807 5806 5805 5805 5804 5804 5803 5802 5802 5801 5801 5802 5803 5802 5801 5801 5801 5800 5800 5799 5799 5801 5802 5804 5805 5806 5806 5807 5808 5811 5813 5814 5817 5819 5821 5823 5825 5829 5833 5835 5835 5836 5838 5841 5842 5844 5845 5847 5850 5854 5858 5862 5863 5865 5868 5871 5873 5875 5877 5879 5881 5882 5884 5887 5888 5888 5889 5889 5889 5892 5895 5895 5894 5896 5898 5899 5900 5902 5904 5906 5908 5909 5910 5912
5812 5811 5809 5807 5806 5806 5805 5804 5804 5803 5803 5802 5802 5801 5801 5803 5804 5803 5802 5801 5800 5799 5799 5799 5800 5801 5802 5804 5805 5805 5806 5807 5808 5810 5812 5814 5816 5819 5820 5821 5822 5826 5831 5833 5836 5839 5839 5840 5841 5843 5844 5845 5848 5853 5856 5859 5860 5863 5867 5869 5871 5873 5876 5878 5879 5880 5883 5884 5885 5886 5888 5889 5888 5889 5894 5895 5895 5896 5897 5898 5899 5900 5903 5905 5907 5908 5909 5911
5811 5809 5808 5806 5806 5805 5804 5804 5803 5803 5803 5802 5802 5802 5802 5803 5804 5803 5802 5801 5800 5800 5800 5800 5800 5801 5803 5805 5804 5804 5805 5807 5808 5809 5812 5813 5816 5818 5818 5820 5822 5826 5829 5832 5836 5838 5840 5843 5841 5840 5842 5843 5846 5852 5853 5855 5858 5861 5864 5866 5868 5871 5874 5875 5876 5877 5880 5881 5882 5884 5886 5886 5886 5887 5889 5891 5893 5896 5897 5898 5899 5901 5902 5904 5906 5907 5908 5909
5810 5808 5807 5805 5805 5804 5803 5803 5803 5802 5802 5802 5802 5802 5802 5802 5801 5801 5800 5800 5800 5801 5801 5801 5802 5804 5806 5805 5803 5804 5806 5807 5808 5809 5812 5815 5817 5817 5818 5819 5821 5824 5826 5829 5833 5835 5840 5843 5838 5836 5839 5839 5843 5849 5850 5853 5858 5860 5861 5864 5867 5870 5872 5873 5874 5876 5878 5879 5880 5882 5884 5884 5885 5885 5885 5887 5890 5892 5895 5897 5898 5900 5901 5902 5904 5905 5907 5909
5808 5807 5805 5804 5804 5803 5803 5802 5802 5802 5802 5802 5802 5802 5802 5801 5800 5800 5799 5799 5800 5800 5801 5803 5804 5805 5807 5806 5804 5805 5807 5807 5809 5810 5812 5814 5815 5815 5816 5816 5816 5818 5821 5825 5829 5832 5837 5840 5835 5834 5837 5838 5842 5847 5848 5851 5856 5858 5862 5865 5866 5868 5869 5869 5871 5874 5876 5878 5879 5880 5882 5884 5884 5884 5884 5886 5888 5889 5892 5893 5895 5897 5897 5898 5901 5903 5905 5907
5807 5806 5804 5803 5803 5802 5802 5802 5801 5801 5802 5802 5802 5802 5801 5801 5800 5799 5799 5799 5799 5800 5801 5805 5805 5805 5807 5808 5806 5806 5807 5808 5809 5810 5811 5812 5812 5812 5814 5815 5813 5815 5819 5823 5827 5830 5833 5837 5835 5833 5835 5837 5841 5844 5845 5848 5853 5856 5859 5862 5863 5866 5867 5867 5870 5873 5875 5877 5878 5878 5880 5882 5883 5883 5884 5886 5888 5889 5890 5891 5893 5894 5895 5896 5899 5901 5904 5905
5805 5804 5803 5802 5802 5801 5801 5801 5801 5801 5801 5801 5801 5801 5801 5800 5799 5799 5799 5798 5799 5799 5801 5804 5805 5804 5805 5807 5807 5808 5807 5807 5809 5810 5810 5812 5812 5811 5812 5814 5814 5815 5818 5822 5825 5827 5831 5835 5835 5833 5834 5836 5838 5841 5844 5847 5851 5853 5854 5856 5858 5862 5865 5866 5868 5871 5873 5874 5875 5876 5878 5879 5880 5880 5882 5885 5887 5888 5889 5890 5892 5893 5894 5896 5897 5899 5901 5903
5804 5803 5802 5801 5801 5800 5800 5800 5801 5801 5801 5800 5800 5800 5800 5800 5799 5799 5798 5798 5798 5799 5799 5801 5803 5804 5804 5805 5807 5808 5807 5807 5809 5810 5809 5810 5811 5811 5810 5811 5813 5814 5817 5821 5823 5825 5829 5833 5835 5833 5833 5835 5836 5839 5843 5846 5849 5851 5852 5853 5857 5860 5862 5864 5865 5868 5871 5872 5873 5875 5876 5876 5877 5879 5881 5883 5885 5885 5886 5888 5891 5892 5893 5894 5896 5897 5898 5901
5802 5802 5801 5800 5800 5800 5800 5800 5800 5800 5800 5800 5799 5799 5799 5799 5799 5799 5798 5798 5798 5798 5798 5800 5801 5803 5804 5804 5805 5807 5806 5807 5809 5808 5807 5809 5810 5809 5808 5809 5811 5813 5816 5821 5823 5824 5827 5831 5834 5834 5834 5835 5836 5838 5842 5846 5848 5849 5850 5853 5858 5861 5862 5863 5864 5867 5868 5869 5870 5873 5874 5873 5875 5878 5878 5880 5881 5882 5884 5886 5888 5890 5890 5892 5894 5894 5895 5898
5801 5801 5800 5799 5799 5799 5799 5799 5799 5800 5800 5799 5798 5798 5798 5798 5798 5798 5798 5798 5797 5797 5797 5798 5799 5800 5802 5803 5803 5805 5807 5808 5808 5808 5809 5809 5808 5806 5806 5807 5810 5812 5815 5821 5823 5821 5823 5827 5830 5834 5836 5836 5836 5837 5840 5843 5845 5846 5849 5851 5855 5858 5859 5861 5865 5867 5867 5868 5870 5872 5872 5872 5873 5875 5875 5877 5878 5879 5882 5884 5885 5887 5889 5890 5892 5892 5893 5896
5800 5799 5798 5798 5797 5798 5798 5798 5799 5799 5798 5797 5797 5798 5798 5798 5797 5797 5797 5797 5797 5797 5797 5797 5797 5798 5799 5800 5802 5804 5806 5807 5806 5807 5809 5808 5805 5804 5805 5806 5808 5810 5814 5818 5819 5818 5821 5824 5826 5830 5834 5835 5836 5836 5837 5838 5840 5843 5847 5849 5851 5855 5857 5859 5863 5864 5865 5868 5869 5870 5870 5871 5872 5873 5874 5876 5876 5877 5879 5880 5882 5884 5887 5889 5890 5890 5892 5894
5799 5798 5797 5797 5796 5797 5797 5797 5797 5797 5796 5796 5797 5797 5797 5797 5796 5796 5796 5796 5796 5796 5796 5796 5796 5797 5798 5798 5800 5801 5802 5803 5803 5804 5806 5805 5803 5804 5805 5806 5807 5809 5811 5813 5814 5815 5819 5821 5823 5827 5830 5832 5834 5834 5834 5835 5837 5840 5845 5847 5848 5853 5856 5858 5860 5861 5863 5866 5868 5869 5869 5868 5869 5870 5872 5874 5875 5875 5876 5877 5878 5880 5881 5884 5887 5888 5891 5892
5798 5797 5796 5795 5795 5796 5796 5796 5795 5795 5795 5796 5796 5796 5796 5795 5795 5796 5796 5796 5795 5795 5796 5796 5796 5796 5797 5797 5798 5799 5799 5801 5802 5802 5802 5802 5802 5803 5804 5805 5806 5807 5809 5810 5812 5814 5816 5817 5820 5824 5827 5830 5831 5831 5832 5834 5835 5838 5843 5845 5849 5853 5854 5857 5860 5861 5862 5863 5864 5866 5866 5864 5866 5868 5870 5872 5873 5874 5875 5877 5877 5878 5879 5882 5884 5886 5889 5891
5796 5795 5794 5794 5794 5794 5794 5794 5794 5794 5794 5794 5794 5795 5795 5794 5794 5795 5795 5795 5795 5795 5795 5795 5795 5795 5796 5796 5797 5798 5798 5799 5800 5800 5800 5800 5800 5801 5802 5804 5805 5806 5808 5809 5810 5812 5814 5815 5818 5820 5823 5825 5825 5826 5830 5832 5834 5838 5841 5844 5849 5852 5852 5852 5857 5860 5860 5859 5861 5863 5863 5861 5863 5866 5867 5869 5872 5873 5874 5875 5876 5877 5879 5880 5882 5884 5886 5888
5794 5793 5793 5792 5793 5793 5793 5793 5793 5793 5793 5793 5793 5793 5793 5793 5794 5794 5794 5794 5794 5794 5794 5794 5795 5795 5795 5796 5796 5797 5797 5797 5798 5798 5799 5799 5799 5800 5802 5803 5804 5805 5806 5807 5809 5810 5812 5814 5816 5818 5821 5821 5821 5824 5828 5830 5833 5838 5841 5843 5846 5848 5848 5848 5852 5855 5856 5856 5858 5860 5859 5859 5861 5862 5864 5866 5869 5870 5871 5872 5874 5876 5877 5879 5881 5882 5884 5886
5792 5792 5791 5791 5791 5791 5791 5791 5791 5791 5791 5791 5792 5792 5792 5792 5792 5792 5793 5793 5793 5793 5794 5794 5794 5794 5795 5795 5795 5795 5795 5796 5796 5797 5797 5798 5799 5800 5801 5802 5803 5804 5806 5807 5807 5808 5810 5812 5813 5816 5818 5819 5821 5824 5826 5827 5830 5833 5837 5840 5840 5842 5844 5845 5847 5851 5852 5852 5853 5854 5855 5858 5858 5859 5862 5864 5865 5866 5867 5869 5871 5873 5875 5877 5879 5881 5882 5884
5790 5789 5789 5789 5789 5789 5789 5788 5788 5789 5789 5789 5790 5791 5791 5791 5791 5791 5792 5792 5792 5792 5793 5793 5793 5793 5793 5794 5794 5794 5794 5794 5795 5795 5796 5797 5798 5799 5800 5801 5802 5803 5804 5805 5805 5806 5809 5810 5811 5812 5815 5817 5819 5822 5824 5826 5827 5829 5831 5833 5834 5836 5840 5842 5844 5847 5848 5848 5849 5851 5853 5855 5855 5856 5860 5862 5861 5861 5864 5867 5869 5871 5873 5875 5877 5879 5880 5882
5787 5787 5787 5787 5787 5787 5787 5787 5787 5787 5788 5788 5788 5789 5789 5790 5790 5790 5790 5791 5791 5791 5792 5792 5792 5792 5792 5792 5793 5793 5793 5793 5794 5794 5795 5797 5797 5798 5798 5799 5800 5801 5802 5802 5803 5804 5807 5808 5809 5811 5813 5815 5817 5819 5822 5824 5826 5827 5829 5830 5830 5833 5836 5837 5839 5841 5842 5843 5846 5849 5850 5851 5852 5854 5855 5857 5858 5859 5862 5865 5866 5868 5870 5872 5874 5876 5878 5880
5785 5784 5785 5785 5785 5785 5785 5785 5785 5786 5786 5787 5787 5787 5787 5788 5789 5789 5789 5789 5790 5790 5791 5791 5791 5791 5791 5791 5792 5792 5792 5793 5793 5793 5794 5795 5795 5796 5797 5798 5798 5800 5800 5800 5800 5803 5804 5806 5807 5809 5811 5813 5814 5817 5820 5822 5824 5827 5827 5825 5826 5830 5832 5833 5833 5835 5837 5840 5842 5845 5846 5847 5849 5852 5852 5852 5854 5856 5859 5862 5863 5866 5868 5870 5872 5874 5875 5877
5782 5782 5782 5783 5783 5783 5783 5783 5784 5785 5785 5784 5785 5785 5786 5786 5787 5787 5788 5788 5789 5789 5790 5790 5790 5790 5790 5790 5791 5791 5791 5792 5792 5793 5794 5794 5794 5795 5796 5796 5797 5798 5798 5798 5799 5801 5802 5804 5805 5807 5809 5811 5813 5815 5817 5819 5822 5823 5821 5821 5824 5827 5827 5827 5829 5830 5833 5836 5838 5840 5842 5844 5846 5848 5849 5850 5851 5853 5855 5858 5861 5863 5865 5867 5869 5870 5872 5875